Location: Freistadt
(48.5112°N, 14.5013°E)
Time: 16:58:11
(UTC+02:00)

AO-109 - Visible Passes

Search period start: 01 April 2023 00:00
Search period end: 11 April 2023 00:00
Orbit: 442 x 482 km, 60.7° (Epoch: 31 March)

Date Brightness Start Highest point End Pass type
(mag) Time Alt. Az. Time Alt. Az. Time Alt. Az.
01 Apr ? 20:15:38 10° NNW 20:18:52 33° NNE 20:21:44 12° E visible
01 Apr ? 21:52:34 10° WNW 21:55:36 33° WSW 21:55:36 33° WSW visible
02 Apr ? 21:19:09 10° WNW 21:22:30 45° SW 21:23:37 32° S visible
03 Apr ? 20:45:42 10° NW 20:49:11 63° SW 20:51:38 18° SSE visible
04 Apr ? 20:12:14 10° NW 20:15:45 87° SW 20:19:13 10° SE visible
04 Apr ? 21:51:25 10° WSW 21:52:00 10° WSW 21:52:36 10° SW visible
05 Apr ? 21:16:40 10° W 21:18:38 14° WSW 21:20:35 10° SSW visible
06 Apr ? 20:42:34 10° WNW 20:45:09 20° WSW 20:47:44 10° S visible
07 Apr ? 20:08:36 10° WNW 20:11:35 27° SW 20:14:33 10° S visible
